Location: Newark
(37.9717°N, 99.9089°W)
Time: 19:12:28
(UTC+00:00)

ISS - Pass Details

Date: 31 July 2019
Orbit: 410 x 420 km, 51.6° (Epoch: 19 August)

Event Time Altitude Azimuth Distance (km) Brightness Sun altitude
Rises 02:48:58 0° 319° (NW) 2,372 1.8 -10.9°
Reaches altitude 10° 02:52:24 10° 356° (N) 1,503 -0.4 -11.4°
Maximum altitude 02:53:30 11° 15° (NNE) 1,429 -0.8 -11.6°
Drops below altitude 10° 02:54:37 10° 35° (NE) 1,500 -0.9 -11.8°
Enters shadow 02:56:59 - 64° (ENE) 2,031 -0.6 -12.2°
